Tracking 28920 objects as of 25-May-2024
HD Live streaming from Space Station
objects crossing your sky now

ONEWEB-0578

Track ONEWEB-0578 now!
10-day predictions
ONEWEB-0578 is classified as:


NORAD ID: 56067
Int'l Code: 2023-043X
Perigee: 1,183.5 km
Apogee: 1,186.3 km
Inclination: 87.9 °
Period: 108.9 minutes
Semi major axis: 7555 km
RCS: Unknown
Launch date: March 26, 2023
Source: United Kingdom (UK)
Launch site: SRIHARIKOTA (SRI)
Your satellite tracking list
Your tracking list is empty




NASA's NSSDC Master Catalog

Two Line Element Set (TLE):
1 56067U 23043X   24145.92429074  .00000059  00000-0  11063-3 0  9997
2 56067  87.9316  33.9157 0001855  82.7095 277.4250 13.21821446 58729
Source of the keplerian elements: AFSPC